Weather History for PATK - July, 2012

Change the Weather History Date:

Saturday, July 21, 2012

  Actual Average Record
Temperature  
Mean Temperature 56 °F -  
Max Temperature 57 °F 66 °F 87 °F (1955)
Min Temperature 55 °F 48 °F 38 °F (1964)
Degree Days  
Heating Degree Days 9    
Growing Degree Days 6 (Base 50)    
Moisture  
Dew Point 56 °F    
Average Humidity 96    
Maximum Humidity 100    
Minimum Humidity 90    
Precipitation  
Precipitation 0.24 in - - ()
Sea Level Pressure  
Sea Level Pressure 29.90 in    
Wind  
Wind Speed 1 mph (NNE)    
Max Wind Speed 5 mph    
Max Gust Speed -    
Visibility 5 miles    
Events Rain    
Averages and records for this station are not official NWS values.
T = Trace of Precipitation, MM = Missing Value Source: NWS Daily Summary

Daily Weather History Graph

Daily Weather History Graph

Search for Another Location

Airport or City:

Trip Planner

Search our weather history database for the weather conditions in past years. The results will help you decide how hot, cold, wet, or windy it might be!

Date:

Astronomy

Jul. 21, 2012 Rise Set
Actual Time 4:56 AM AKDT 11:15 PM AKDT
Civil Twilight 3:22 AM AKDT 12:46 AM AKDT
Nautical Twilight Sun does not set Sun does not set
Astronomical Twilight Sun does not set Sun does not set
Moon 9:11 AM AKDT (7/21) 10:57 PM AKDT (7/21)
Length of Visible Light 21h 24m
Length of Day
18h 19m
Waxing Crescent, 8% of the Moon is Illuminated
Jul 21
Waxing Crescent
Jul 26
First Quarter
Aug 1
Full
Aug 9
Last Quarter
Aug 17
New

Hourly Weather History & Observations

Time (AKDT) Temp. Dew Point Humidity Pressure Visibility Wind Dir Wind Speed Gust Speed Precip Events Conditions
12:53 AM 55.9 °F 55.0 °F 97% 29.88 in 10.0 mi NE 3.5 mph - 0.00 in Rain Light Rain
1:53 AM 55.9 °F 55.0 °F 97% 29.87 in 10.0 mi North 3.5 mph - 0.00 in   Overcast
2:53 AM 55.9 °F 54.0 °F 93% 29.88 in 7.0 mi North 3.5 mph - 0.02 in Rain Light Rain
3:53 AM 55.9 °F 55.0 °F 97% 29.88 in 7.0 mi Calm Calm - 0.04 in Rain Light Rain
4:53 AM 55.9 °F 55.0 °F 97% 29.89 in 4.0 mi Calm Calm - 0.08 in Rain Light Rain
5:53 AM 55.0 °F 54.0 °F 96% 29.89 in 3.0 mi Calm Calm - 0.03 in Rain Light Rain
6:47 AM 55.4 °F 55.4 °F 100% 29.88 in 2.5 mi Calm Calm - 0.10 in Rain Rain
6:53 AM 55.9 °F 55.0 °F 97% 29.89 in 2.5 mi Calm Calm - 0.10 in Rain Light Rain
7:15 AM 55.4 °F 55.4 °F 100% 29.88 in 3.0 mi Calm Calm - 0.02 in Rain Light Rain
7:24 AM 55.4 °F 55.4 °F 100% 29.88 in 2.5 mi Calm Calm - 0.03 in Rain Light Rain
7:32 AM 55.4 °F 55.4 °F 100% 29.88 in 7.0 mi Calm Calm - 0.03 in Rain Light Rain
7:49 AM 55.4 °F 55.4 °F 100% 29.88 in 3.0 mi Calm Calm - 0.03 in Rain Light Rain
7:53 AM 55.9 °F 55.0 °F 97% 29.89 in 3.0 mi Calm Calm - 0.03 in Rain Light Rain
7:55 AM 55.4 °F 55.4 °F 100% 29.89 in 3.0 mi Calm Calm - 0.00 in Rain Light Rain
8:01 AM 55.4 °F 55.4 °F 100% 29.89 in 3.0 mi Calm Calm - 0.01 in Rain Light Rain
8:53 AM 55.9 °F 55.0 °F 97% 29.89 in 3.0 mi Calm Calm - 0.09 in Rain Light Rain
9:53 AM 55.0 °F 54.0 °F 96% 29.90 in 3.0 mi Calm Calm - 0.02 in Rain Light Rain
10:53 AM 55.9 °F 55.0 °F 97% 29.91 in 3.0 mi Calm Calm - 0.04 in Rain Light Rain
11:00 AM 55.4 °F 55.4 °F 100% 29.90 in 3.0 mi Calm Calm - 0.01 in Rain Light Rain
11:53 AM 55.9 °F 54.0 °F 93% 29.91 in 3.0 mi Calm Calm - 0.04 in Rain Light Rain
12:53 PM 57.0 °F 55.0 °F 93% 29.91 in 5.0 mi Calm Calm - 0.01 in   Overcast
1:35 PM 57.2 °F 55.4 °F 94% 29.90 in 5.0 mi Calm Calm - 0.01 in Rain Light Rain
1:53 PM 57.0 °F 55.9 °F 96% 29.91 in 3.0 mi Calm Calm - 0.03 in Rain Light Rain
2:08 PM 57.2 °F 55.4 °F 94% 29.90 in 2.5 mi Calm Calm - 0.01 in Rain Light Rain
2:19 PM 57.2 °F 55.4 °F 94% 29.91 in 3.0 mi Calm Calm - 0.02 in Rain Light Rain
2:33 PM 57.2 °F 55.4 °F 94% 29.91 in 2.5 mi Calm Calm - 0.03 in Rain Light Rain
2:53 PM 57.0 °F 55.0 °F 93% 29.91 in 2.5 mi NE 3.5 mph - 0.04 in Rain Light Rain
2:57 PM 57.2 °F 55.4 °F 94% 29.91 in 3.0 mi Calm Calm - 0.01 in Rain Rain
3:05 PM 57.2 °F 55.4 °F 94% 29.91 in 2.0 mi Calm Calm - 0.02 in Rain Rain
3:16 PM 57.2 °F 55.4 °F 94% 29.90 in 6.0 mi Calm Calm - 0.03 in Rain Light Rain
3:53 PM 57.9 °F 55.9 °F 93% 29.91 in 4.0 mi Calm Calm - 0.06 in Rain Light Rain
4:53 PM 57.9 °F 55.9 °F 93% 29.91 in 4.0 mi NNE 3.5 mph - 0.02 in   Overcast
5:53 PM 57.9 °F 55.9 °F 93% 29.91 in 10.0 mi NNE 3.5 mph - 0.00 in   Overcast
6:06 PM 57.2 °F 57.2 °F 100% 29.90 in 10.0 mi Calm Calm - N/A   Overcast
6:21 PM 57.2 °F 57.2 °F 100% 29.90 in 10.0 mi Calm Calm - N/A   Overcast
6:49 PM 57.2 °F 57.2 °F 100% 29.91 in 6.0 mi Calm Calm - 0.00 in Rain Light Rain
6:53 PM 57.9 °F 57.0 °F 97% 29.91 in 6.0 mi Calm Calm - 0.01 in Rain Light Rain
7:32 PM 57.2 °F 57.2 °F 100% 29.90 in 6.0 mi Calm Calm - 0.04 in Rain Rain
7:39 PM 57.2 °F 57.2 °F 100% 29.90 in 7.0 mi Calm Calm - 0.05 in Rain Light Rain
7:53 PM 57.9 °F 57.0 °F 97% 29.91 in 7.0 mi Calm Calm - 0.07 in Rain Light Rain
8:32 PM 57.2 °F 57.2 °F 100% 29.91 in 9.0 mi Calm Calm - 0.03 in Rain Light Rain
8:53 PM 57.9 °F 57.0 °F 97% 29.92 in 6.0 mi Calm Calm - 0.05 in Rain Light Rain
9:53 PM 57.9 °F 55.9 °F 93% 29.93 in 6.0 mi Calm Calm - 0.05 in Rain Light Rain
10:53 PM 57.0 °F 55.9 °F 96% 29.93 in 9.0 mi Calm Calm - 0.03 in Rain Light Rain
11:49 PM 57.2 °F 55.4 °F 94% 29.93 in 10.0 mi Variable 4.6 mph - 0.01 in   Overcast
11:50 PM 57.0 °F 55.9 °F 96% 29.94 in 10.0 mi WNW 3.5 mph - 0.01 in   Overcast